Location: *
(37.5724°S, 58.0067°E)
Time: 19:25:39
(UTC+00:00)

Cosmos 2297 Rocket - Pass Details

Date: 26 September 2020
Orbit: 838 x 845 km, 71.0° (Epoch: 27 October)

Event Time Altitude Azimuth Distance (km) Brightness Sun altitude
Exits shadow 22:58:39 53° 127° (SE) 1,038 2.8 -32.9°
Drops below altitude 10° 23:03:07 10° 152° (SSE) 2,486 5.3 -32.1°
Sets 23:05:36 0° 155° (SSE) 3,427 6.1 -31.7°
